Location: Gallinara
(44.0333°N, 8.2333°E)
Time: 06:40:24
(UTC+00:00)

Cosmos 1980 Rocket - Pass Details

Date: 25 September 2020
Orbit: 831 x 848 km, 71.0° (Epoch: 23 October)

Event Time Altitude Azimuth Distance (km) Brightness Sun altitude
Exits shadow 02:47:31 32° 325° (NW) 1,405 3.2 -26.9°
Drops below altitude 10° 02:51:44 10° 10° (N) 2,467 5.0 -26.2°
Sets 02:54:25 0° 20° (NNE) 3,402 6.0 -25.8°
